owner,sensor,date,latitude,longitude,vertical_datum,wind_speed,wind_to_direction,wind_speed_of_gust,qcFlag 
TCOON,ioos:station:TCOON:057:1,2017-05-01T00:00:00Z,28.4460,-96.3961,0.0,2.3,70.0,2.6,'11111222,11111222,11111222' 
TCOON,ioos:station:TCOON:057:1,2017-05-01T00:06:00Z,28.4460,-96.3961,0.0,2.6,53.0,3.2,'11111222,11111222,11111222' 
TCOON,ioos:station:TCOON:057:1,2017-05-01T00:12:00Z,28.4460,-96.3961,0.0,2.5,62.0,3.4,'11111222,11111222,11111222' 
TCOON,ioos:station:TCOON:057:1,2017-05-01T00:18:00Z,28.4460,-96.3961,0.0,2.3,58.0,3.3,'1111122,1111122,1111122' 
TCOON,ioos:station:TCOON:057:1,2017-05-01T00:24:00Z,28.4460,-96.3961,0.0,2.2,74.0,2.6,'11111222,11111222,11111222' 
TCOON,ioos:station:TCOON:057:1,2017-05-01T00:30:00Z,28.4460,-96.3961,0.0,1.9,91.0,2.7,'11111222,11111222,11111222' 
TCOON,ioos:station:TCOON:057:1,2017-05-01T00:36:00Z,28.4460,-96.3961,0.0,2.1,87.0,2.8,'11111222,11111222,11111222' 
TCOON,ioos:station:TCOON:057:1,2017-05-01T00:42:00Z,28.4460,-96.3961,0.0,3.4,90.0,3.9,'11111222,11111222,11111222' 
TCOON,ioos:station:TCOON:057:1,2017-05-01T00:48:00Z,28.4460,-96.3961,0.0,3.0,82.0,3.9,'11111222,11111222,11111222' 
TCOON,ioos:station:TCOON:057:1,2017-05-01T00:54:00Z,28.4460,-96.3961,0.0,2.3,83.0,2.7,'11111222,11111222,11111222' 
TCOON,ioos:station:TCOON:057:1,2017-05-01T01:00:00Z,28.4460,-96.3961,0.0,2.2,88.0,2.8,'11111222,11111222,11111222' 
TCOON,ioos:station:TCOON:057:1,2017-05-01T01:06:00Z,28.4460,-96.3961,0.0,2.9,85.0,3.5,'11111222,11111222,11111222' 
TCOON,ioos:station:TCOON:057:1,2017-05-01T01:12:00Z,28.4460,-96.3961,0.0,3.8,107.0,4.2,'11111222,11111222,11111222' 
TCOON,ioos:station:TCOON:057:1,2017-05-01T01:18:00Z,28.4460,-96.3961,0.0,3.6,104.0,4.2,'1111122,1111122,1111122' 
TCOON,ioos:station:TCOON:057:1,2017-05-01T01:24:00Z,28.4460,-96.3961,0.0,4.3,131.0,4.9,'11111222,11111222,11111222' 
TCOON,ioos:station:TCOON:057:1,2017-05-01T01:30:00Z,28.4460,-96.3961,0.0,3.5,126.0,4.9,'11111222,11111222,11111222' 
TCOON,ioos:station:TCOON:057:1,2017-05-01T01:36:00Z,28.4460,-96.3961,0.0,3.5,112.0,3.8,'11111222,11111222,11111222' 
TCOON,ioos:station:TCOON:057:1,2017-05-01T01:42:00Z,28.4460,-96.3961,0.0,3.1,97.0,4.0,'11111222,11111222,11111222' 
TCOON,ioos:station:TCOON:057:1,2017-05-01T01:48:00Z,28.4460,-96.3961,0.0,3.5,98.0,4.0,'11111222,11111222,11111222' 
TCOON,ioos:station:TCOON:057:1,2017-05-01T01:54:00Z,28.4460,-96.3961,0.0,3.8,101.0,4.4,'11111222,11111222,11111222' 
TCOON,ioos:station:TCOON:057:1,2017-05-01T02:00:00Z,28.4460,-96.3961,0.0,3.4,94.0,4.3,'11111222,11111222,11111222' 
TCOON,ioos:station:TCOON:057:1,2017-05-01T02:06:00Z,28.4460,-96.3961,0.0,3.3,92.0,3.7,'11111222,11111222,11111222' 
TCOON,ioos:station:TCOON:057:1,2017-05-01T02:12:00Z,28.4460,-96.3961,0.0,4.0,83.0,4.7,'11111222,11111222,11111222' 
TCOON,ioos:station:TCOON:057:1,2017-05-01T02:18:00Z,28.4460,-96.3961,0.0,3.9,79.0,4.4,'1111122,1111122,1111122' 
TCOON,ioos:station:TCOON:057:1,2017-05-01T02:24:00Z,28.4460,-96.3961,0.0,4.9,114.0,5.8,'11111222,11111222,11111222' 
TCOON,ioos:station:TCOON:057:1,2017-05-01T02:30:00Z,28.4460,-96.3961,0.0,5.6,114.0,6.3,'11111222,11111222,11111222' 
TCOON,ioos:station:TCOON:057:1,2017-05-01T02:36:00Z,28.4460,-96.3961,0.0,5.5,111.0,6.6,'11111222,11111222,11111222' 
TCOON,ioos:station:TCOON:057:1,2017-05-01T02:42:00Z,28.4460,-96.3961,0.0,4.8,111.0,6.2,'11111222,11111222,11111222' 
TCOON,ioos:station:TCOON:057:1,2017-05-01T02:48:00Z,28.4460,-96.3961,0.0,5.0,110.0,5.6,'11111222,11111222,11111222' 
TCOON,ioos:station:TCOON:057:1,2017-05-01T02:54:00Z,28.4460,-96.3961,0.0,4.7,105.0,5.8,'11111222,11111222,11111222' 
TCOON,ioos:station:TCOON:057:1,2017-05-01T03:00:00Z,28.4460,-96.3961,0.0,4.3,104.0,5.3,'11111222,11111222,11111222' 
TCOON,ioos:station:TCOON:057:1,2017-05-01T03:06:00Z,28.4460,-96.3961,0.0,3.9,101.0,5.1,'11111222,11111222,11111222' 
TCOON,ioos:station:TCOON:057:1,2017-05-01T03:12:00Z,28.4460,-96.3961,0.0,4.5,99.0,5.0,'11111222,11111222,11111222' 
TCOON,ioos:station:TCOON:057:1,2017-05-01T03:18:00Z,28.4460,-96.3961,0.0,4.5,96.0,5.1,'1111122,1111122,1111122' 
TCOON,ioos:station:TCOON:057:1,2017-05-01T03:24:00Z,28.4460,-96.3961,0.0,3.8,99.0,5.5,'11111222,11111222,11111222' 
TCOON,ioos:station:TCOON:057:1,2017-05-01T03:30:00Z,28.4460,-96.3961,0.0,5.4,107.0,6.2,'11111222,11111222,11111222' 
TCOON,ioos:station:TCOON:057:1,2017-05-01T03:36:00Z,28.4460,-96.3961,0.0,5.2,104.0,6.3,'11111222,11111222,11111222' 
TCOON,ioos:station:TCOON:057:1,2017-05-01T03:42:00Z,28.4460,-96.3961,0.0,4.7,97.0,5.7,'11111222,11111222,11111222' 
TCOON,ioos:station:TCOON:057:1,2017-05-01T03:48:00Z,28.4460,-96.3961,0.0,4.5,89.0,5.9,'11111222,11111222,11111222' 
TCOON,ioos:station:TCOON:057:1,2017-05-01T03:54:00Z,28.4460,-96.3961,0.0,4.8,93.0,6.2,'11111222,11111222,11111222' 
TCOON,ioos:station:TCOON:057:1,2017-05-01T04:00:00Z,28.4460,-96.3961,0.0,5.2,86.0,6.2,'11111222,11111222,11111222' 
TCOON,ioos:station:TCOON:057:1,2017-05-01T04:06:00Z,28.4460,-96.3961,0.0,4.6,84.0,6.4,'11111222,11111222,11111222' 
TCOON,ioos:station:TCOON:057:1,2017-05-01T04:12:00Z,28.4460,-96.3961,0.0,5.5,83.0,6.5,'11111222,11111222,11111222' 
TCOON,ioos:station:TCOON:057:1,2017-05-01T04:18:00Z,28.4460,-96.3961,0.0,5.5,83.0,6.3,'11111222,11111222,11111222' 
TCOON,ioos:station:TCOON:057:1,2017-05-01T04:24:00Z,28.4460,-96.3961,0.0,5.4,80.0,6.3,'1111122,1111122,1111122' 
TCOON,ioos:station:TCOON:057:1,2017-05-01T04:30:00Z,28.4460,-96.3961,0.0,5.4,82.0,6.1,'11111222,11111222,11111222' 
TCOON,ioos:station:TCOON:057:1,2017-05-01T04:36:00Z,28.4460,-96.3961,0.0,5.3,75.0,6.2,'11111222,11111222,11111222' 
TCOON,ioos:station:TCOON:057:1,2017-05-01T04:42:00Z,28.4460,-96.3961,0.0,6.1,83.0,7.3,'11111222,11111222,11111222' 
TCOON,ioos:station:TCOON:057:1,2017-05-01T04:48:00Z,28.4460,-96.3961,0.0,6.1,94.0,6.9,'11111222,11111222,11111222' 
TCOON,ioos:station:TCOON:057:1,2017-05-01T04:54:00Z,28.4460,-96.3961,0.0,6.0,96.0,7.0,'11111222,11111222,11111222' 
TCOON,ioos:station:TCOON:057:1,2017-05-01T05:00:00Z,28.4460,-96.3961,0.0,5.8,93.0,6.9,'11111222,11111222,11111222' 
TCOON,ioos:station:TCOON:057:1,2017-05-01T05:06:00Z,28.4460,-96.3961,0.0,6.1,106.0,6.9,'11111222,11111222,11111222' 
TCOON,ioos:station:TCOON:057:1,2017-05-01T05:12:00Z,28.4460,-96.3961,0.0,5.5,103.0,7.0,'11111222,11111222,11111222' 
TCOON,ioos:station:TCOON:057:1,2017-05-01T05:18:00Z,28.4460,-96.3961,0.0,5.5,99.0,6.7,'1111122,1111122,1111122' 
TCOON,ioos:station:TCOON:057:1,2017-05-01T05:24:00Z,28.4460,-96.3961,0.0,5.0,100.0,6.2,'11111222,11111222,11111222' 
TCOON,ioos:station:TCOON:057:1,2017-05-01T05:30:00Z,28.4460,-96.3961,0.0,4.9,97.0,6.0,'11111222,11111222,11111222' 
TCOON,ioos:station:TCOON:057:1,2017-05-01T05:36:00Z,28.4460,-96.3961,0.0,5.2,107.0,6.0,'11111222,11111222,11111222' 
TCOON,ioos:station:TCOON:057:1,2017-05-01T05:42:00Z,28.4460,-96.3961,0.0,5.4,107.0,6.3,'11111222,11111222,11111222' 
TCOON,ioos:station:TCOON:057:1,2017-05-01T05:48:00Z,28.4460,-96.3961,0.0,5.1,106.0,6.1,'11111222,11111222,11111222' 
TCOON,ioos:station:TCOON:057:1,2017-05-01T05:54:00Z,28.4460,-96.3961,0.0,5.1,106.0,5.9,'11111222,11111222,11111222' 
TCOON,ioos:station:TCOON:057:1,2017-05-01T06:00:00Z,28.4460,-96.3961,0.0,5.1,110.0,6.4,'11111222,11111222,11111222' 
TCOON,ioos:station:TCOON:057:1,2017-05-01T06:06:00Z,28.4460,-96.3961,0.0,4.7,105.0,6.0,'11111222,11111222,11111222' 
TCOON,ioos:station:TCOON:057:1,2017-05-01T06:12:00Z,28.4460,-96.3961,0.0,5.5,107.0,6.3,'11111222,11111222,11111222' 
TCOON,ioos:station:TCOON:057:1,2017-05-01T06:18:00Z,28.4460,-96.3961,0.0,5.3,104.0,6.1,'1111122,1111122,1111122' 
TCOON,ioos:station:TCOON:057:1,2017-05-01T06:24:00Z,28.4460,-96.3961,0.0,4.5,104.0,5.4,'11111222,11111222,11111222' 
TCOON,ioos:station:TCOON:057:1,2017-05-01T06:30:00Z,28.4460,-96.3961,0.0,4.3,111.0,5.1,'11111222,11111222,11111222' 
TCOON,ioos:station:TCOON:057:1,2017-05-01T06:36:00Z,28.4460,-96.3961,0.0,4.3,105.0,5.7,'11111222,11111222,11111222' 
TCOON,ioos:station:TCOON:057:1,2017-05-01T06:42:00Z,28.4460,-96.3961,0.0,4.7,108.0,5.2,'11111222,11111222,11111222' 
TCOON,ioos:station:TCOON:057:1,2017-05-01T06:48:00Z,28.4460,-96.3961,0.0,4.1,107.0,4.9,'11111222,11111222,11111222' 
TCOON,ioos:station:TCOON:057:1,2017-05-01T06:54:00Z,28.4460,-96.3961,0.0,3.9,115.0,5.1,'11111222,11111222,11111222' 
TCOON,ioos:station:TCOON:057:1,2017-05-01T07:00:00Z,28.4460,-96.3961,0.0,4.4,112.0,4.7,'11111222,11111222,11111222' 
TCOON,ioos:station:TCOON:057:1,2017-05-01T07:06:00Z,28.4460,-96.3961,0.0,3.7,110.0,4.7,'11111222,11111222,11111222' 
TCOON,ioos:station:TCOON:057:1,2017-05-01T07:12:00Z,28.4460,-96.3961,0.0,4.2,116.0,4.9,'11111222,11111222,11111222' 
TCOON,ioos:station:TCOON:057:1,2017-05-01T07:18:00Z,28.4460,-96.3961,0.0,4.0,113.0,4.7,'1111122,1111122,1111122' 
TCOON,ioos:station:TCOON:057:1,2017-05-01T07:24:00Z,28.4460,-96.3961,0.0,3.9,124.0,4.5,'11111222,11111222,11111222' 
TCOON,ioos:station:TCOON:057:1,2017-05-01T07:30:00Z,28.4460,-96.3961,0.0,3.8,115.0,4.5,'11111222,11111222,11111222' 
TCOON,ioos:station:TCOON:057:1,2017-05-01T07:36:00Z,28.4460,-96.3961,0.0,3.8,120.0,4.7,'11111222,11111222,11111222' 
TCOON,ioos:station:TCOON:057:1,2017-05-01T07:42:00Z,28.4460,-96.3961,0.0,3.9,121.0,4.6,'11111222,11111222,11111222' 
TCOON,ioos:station:TCOON:057:1,2017-05-01T07:48:00Z,28.4460,-96.3961,0.0,3.8,126.0,4.5,'11111222,11111222,11111222' 
TCOON,ioos:station:TCOON:057:1,2017-05-01T07:54:00Z,28.4460,-96.3961,0.0,3.6,128.0,4.4,'11111222,11111222,11111222' 
TCOON,ioos:station:TCOON:057:1,2017-05-01T08:00:00Z,28.4460,-96.3961,0.0,3.8,137.0,4.3,'11111222,11111222,11111222' 
TCOON,ioos:station:TCOON:057:1,2017-05-01T08:06:00Z,28.4460,-96.3961,0.0,3.5,138.0,4.0,'11111222,11111222,11111222' 
TCOON,ioos:station:TCOON:057:1,2017-05-01T08:12:00Z,28.4460,-96.3961,0.0,3.6,134.0,4.4,'11111222,11111222,11111222' 
TCOON,ioos:station:TCOON:057:1,2017-05-01T08:18:00Z,28.4460,-96.3961,0.0,4.1,134.0,4.5,'11111222,11111222,11111222' 
TCOON,ioos:station:TCOON:057:1,2017-05-01T08:24:00Z,28.4460,-96.3961,0.0,4.0,129.0,4.4,'1111122,1111122,1111122' 
TCOON,ioos:station:TCOON:057:1,2017-05-01T08:30:00Z,28.4460,-96.3961,0.0,4.0,153.0,4.5,'11111222,11111222,11111222' 
TCOON,ioos:station:TCOON:057:1,2017-05-01T08:36:00Z,28.4460,-96.3961,0.0,4.1,141.0,4.6,'11111222,11111222,11111222' 
TCOON,ioos:station:TCOON:057:1,2017-05-01T08:42:00Z,28.4460,-96.3961,0.0,3.4,140.0,4.5,'11111222,11111222,11111222' 
TCOON,ioos:station:TCOON:057:1,2017-05-01T08:48:00Z,28.4460,-96.3961,0.0,4.1,148.0,4.8,'11111222,11111222,11111222' 
TCOON,ioos:station:TCOON:057:1,2017-05-01T08:54:00Z,28.4460,-96.3961,0.0,3.6,137.0,4.6,'11111222,11111222,11111222' 
TCOON,ioos:station:TCOON:057:1,2017-05-01T09:00:00Z,28.4460,-96.3961,0.0,3.8,146.0,4.3,'11111222,11111222,11111222' 
TCOON,ioos:station:TCOON:057:1,2017-05-01T09:06:00Z,28.4460,-96.3961,0.0,4.1,151.0,4.4,'11111222,11111222,11111222' 
TCOON,ioos:station:TCOON:057:1,2017-05-01T09:12:00Z,28.4460,-96.3961,0.0,3.9,157.0,4.5,'11111222,11111222,11111222' 
TCOON,ioos:station:TCOON:057:1,2017-05-01T09:18:00Z,28.4460,-96.3961,0.0,4.0,144.0,4.7,'11111222,11111222,11111222' 
TCOON,ioos:station:TCOON:057:1,2017-05-01T09:24:00Z,28.4460,-96.3961,0.0,3.9,139.0,4.6,'1111122,1111122,1111122' 
TCOON,ioos:station:TCOON:057:1,2017-05-01T09:30:00Z,28.4460,-96.3961,0.0,3.7,160.0,4.4,'11111222,11111222,11111222' 
TCOON,ioos:station:TCOON:057:1,2017-05-01T09:36:00Z,28.4460,-96.3961,0.0,4.3,161.0,5.3,'11111222,11111222,11111222' 
TCOON,ioos:station:TCOON:057:1,2017-05-01T09:42:00Z,28.4460,-96.3961,0.0,4.4,159.0,5.0,'11111222,11111222,11111222' 
TCOON,ioos:station:TCOON:057:1,2017-05-01T09:48:00Z,28.4460,-96.3961,0.0,3.9,151.0,4.5,'11111222,11111222,11111222' 
TCOON,ioos:station:TCOON:057:1,2017-05-01T09:54:00Z,28.4460,-96.3961,0.0,4.3,161.0,4.7,'11111222,11111222,11111222' 
TCOON,ioos:station:TCOON:057:1,2017-05-01T10:00:00Z,28.4460,-96.3961,0.0,4.2,164.0,4.9,'11111222,11111222,11111222' 
TCOON,ioos:station:TCOON:057:1,2017-05-01T10:06:00Z,28.4460,-96.3961,0.0,4.3,158.0,4.8,'11111222,11111222,11111222' 
TCOON,ioos:station:TCOON:057:1,2017-05-01T10:12:00Z,28.4460,-96.3961,0.0,4.6,166.0,5.6,'11111222,11111222,11111222' 
TCOON,ioos:station:TCOON:057:1,2017-05-01T10:18:00Z,28.4460,-96.3961,0.0,4.4,163.0,5.3,'11111222,11111222,11111222' 
TCOON,ioos:station:TCOON:057:1,2017-05-01T10:24:00Z,28.4460,-96.3961,0.0,4.4,158.0,5.3,'1111122,1111122,1111122' 
TCOON,ioos:station:TCOON:057:1,2017-05-01T10:30:00Z,28.4460,-96.3961,0.0,4.8,165.0,5.8,'11111222,11111222,11111222' 
TCOON,ioos:station:TCOON:057:1,2017-05-01T10:36:00Z,28.4460,-96.3961,0.0,5.3,170.0,5.9,'11111222,11111222,11111222' 
TCOON,ioos:station:TCOON:057:1,2017-05-01T10:42:00Z,28.4460,-96.3961,0.0,5.5,174.0,6.0,'11111222,11111222,11111222' 
TCOON,ioos:station:TCOON:057:1,2017-05-01T10:48:00Z,28.4460,-96.3961,0.0,4.3,188.0,6.1,'11111222,11111222,11111222' 
TCOON,ioos:station:TCOON:057:1,2017-05-01T10:54:00Z,28.4460,-96.3961,0.0,5.0,176.0,5.7,'11111222,11111222,11111222' 
TCOON,ioos:station:TCOON:057:1,2017-05-01T11:00:00Z,28.4460,-96.3961,0.0,5.0,178.0,5.9,'11111222,11111222,11111222' 
TCOON,ioos:station:TCOON:057:1,2017-05-01T11:06:00Z,28.4460,-96.3961,0.0,5.1,176.0,6.2,'11111222,11111222,11111222' 
TCOON,ioos:station:TCOON:057:1,2017-05-01T11:12:00Z,28.4460,-96.3961,0.0,5.0,179.0,5.6,'11111222,11111222,11111222' 
TCOON,ioos:station:TCOON:057:1,2017-05-01T11:18:00Z,28.4460,-96.3961,0.0,3.3,195.0,5.6,'11111222,11111222,11111222' 
TCOON,ioos:station:TCOON:057:1,2017-05-01T11:24:00Z,28.4460,-96.3961,0.0,3.4,191.0,5.6,'1111122,1111122,1111122' 
TCOON,ioos:station:TCOON:057:1,2017-05-01T11:30:00Z,28.4460,-96.3961,0.0,3.5,193.0,4.0,'11111222,11111222,11111222' 
TCOON,ioos:station:TCOON:057:1,2017-05-01T11:36:00Z,28.4460,-96.3961,0.0,4.3,182.0,5.1,'11111222,11111222,11111222' 
TCOON,ioos:station:TCOON:057:1,2017-05-01T11:42:00Z,28.4460,-96.3961,0.0,4.2,181.0,5.7,'11111222,11111222,11111222' 
TCOON,ioos:station:TCOON:057:1,2017-05-01T11:48:00Z,28.4460,-96.3961,0.0,5.6,172.0,6.3,'11111222,11111222,11111222' 
TCOON,ioos:station:TCOON:057:1,2017-05-01T11:54:00Z,28.4460,-96.3961,0.0,5.3,174.0,6.4,'11111222,11111222,11111222' 
TCOON,ioos:station:TCOON:057:1,2017-05-01T12:00:00Z,28.4460,-96.3961,0.0,5.5,174.0,6.2,'11111222,11111222,11111222' 
TCOON,ioos:station:TCOON:057:1,2017-05-01T12:06:00Z,28.4460,-96.3961,0.0,5.5,177.0,6.3,'11111222,11111222,11111222' 
TCOON,ioos:station:TCOON:057:1,2017-05-01T12:12:00Z,28.4460,-96.3961,0.0,5.4,177.0,6.4,'11111222,11111222,11111222' 
TCOON,ioos:station:TCOON:057:1,2017-05-01T12:18:00Z,28.4460,-96.3961,0.0,4.7,182.0,6.5,'11111222,11111222,11111222' 
TCOON,ioos:station:TCOON:057:1,2017-05-01T12:24:00Z,28.4460,-96.3961,0.0,4.6,176.0,6.4,'1111122,1111122,1111122' 
TCOON,ioos:station:TCOON:057:1,2017-05-01T12:30:00Z,28.4460,-96.3961,0.0,5.6,177.0,6.5,'11111222,11111222,11111222' 
TCOON,ioos:station:TCOON:057:1,2017-05-01T12:36:00Z,28.4460,-96.3961,0.0,4.8,188.0,7.0,'11111222,11111222,11111222' 
TCOON,ioos:station:TCOON:057:1,2017-05-01T12:42:00Z,28.4460,-96.3961,0.0,4.4,187.0,7.0,'11111222,11111222,11111222' 
TCOON,ioos:station:TCOON:057:1,2017-05-01T12:48:00Z,28.4460,-96.3961,0.0,6.0,178.0,7.1,'11111222,11111222,11111222' 
TCOON,ioos:station:TCOON:057:1,2017-05-01T12:54:00Z,28.4460,-96.3961,0.0,6.4,184.0,7.4,'11111222,11111222,11111222' 
TCOON,ioos:station:TCOON:057:1,2017-05-01T13:00:00Z,28.4460,-96.3961,0.0,5.5,189.0,7.0,'11111222,11111222,11111222' 
TCOON,ioos:station:TCOON:057:1,2017-05-01T13:06:00Z,28.4460,-96.3961,0.0,5.7,187.0,6.5,'11111222,11111222,11111222' 
TCOON,ioos:station:TCOON:057:1,2017-05-01T13:12:00Z,28.4460,-96.3961,0.0,5.3,190.0,7.2,'11111222,11111222,11111222' 
TCOON,ioos:station:TCOON:057:1,2017-05-01T13:18:00Z,28.4460,-96.3961,0.0,5.4,185.0,7.2,'1111122,1111122,1111122' 
TCOON,ioos:station:TCOON:057:1,2017-05-01T13:24:00Z,28.4460,-96.3961,0.0,7.0,183.0,7.9,'11111222,11111222,11111222' 
TCOON,ioos:station:TCOON:057:1,2017-05-01T13:30:00Z,28.4460,-96.3961,0.0,6.5,188.0,7.9,'11111222,11111222,11111222' 
TCOON,ioos:station:TCOON:057:1,2017-05-01T13:36:00Z,28.4460,-96.3961,0.0,6.7,187.0,8.0,'11111222,11111222,11111222' 
TCOON,ioos:station:TCOON:057:1,2017-05-01T13:42:00Z,28.4460,-96.3961,0.0,6.4,188.0,8.1,'11111222,11111222,11111222' 
TCOON,ioos:station:TCOON:057:1,2017-05-01T13:48:00Z,28.4460,-96.3961,0.0,6.7,179.0,7.6,'11111222,11111222,11111222' 
TCOON,ioos:station:TCOON:057:1,2017-05-01T13:54:00Z,28.4460,-96.3961,0.0,6.9,184.0,7.9,'11111222,11111222,11111222' 
TCOON,ioos:station:TCOON:057:1,2017-05-01T14:00:00Z,28.4460,-96.3961,0.0,7.2,187.0,8.1,'11111222,11111222,11111222' 
TCOON,ioos:station:TCOON:057:1,2017-05-01T14:06:00Z,28.4460,-96.3961,0.0,7.4,184.0,8.1,'11111222,11111222,11111222' 
TCOON,ioos:station:TCOON:057:1,2017-05-01T14:12:00Z,28.4460,-96.3961,0.0,7.3,187.0,8.6,'11111222,11111222,11111222' 
TCOON,ioos:station:TCOON:057:1,2017-05-01T14:18:00Z,28.4460,-96.3961,0.0,7.3,181.0,8.5,'1111122,1111122,1111122' 
TCOON,ioos:station:TCOON:057:1,2017-05-01T14:24:00Z,28.4460,-96.3961,0.0,7.0,179.0,8.4,'11111222,11111222,11111222' 
TCOON,ioos:station:TCOON:057:1,2017-05-01T14:30:00Z,28.4460,-96.3961,0.0,7.1,188.0,8.7,'11111222,11111222,11111222' 
TCOON,ioos:station:TCOON:057:1,2017-05-01T14:36:00Z,28.4460,-96.3961,0.0,7.2,192.0,8.8,'11111222,11111222,11111222' 
TCOON,ioos:station:TCOON:057:1,2017-05-01T14:42:00Z,28.4460,-96.3961,0.0,6.2,186.0,8.1,'11111222,11111222,11111222' 
TCOON,ioos:station:TCOON:057:1,2017-05-01T14:48:00Z,28.4460,-96.3961,0.0,6.5,184.0,8.7,'11111222,11111222,11111222' 
TCOON,ioos:station:TCOON:057:1,2017-05-01T14:54:00Z,28.4460,-96.3961,0.0,6.7,177.0,7.9,'11111222,11111222,11111222' 
TCOON,ioos:station:TCOON:057:1,2017-05-01T15:00:00Z,28.4460,-96.3961,0.0,7.0,187.0,8.4,'11111222,11111222,11111222' 
TCOON,ioos:station:TCOON:057:1,2017-05-01T15:06:00Z,28.4460,-96.3961,0.0,7.8,184.0,8.5,'11111222,11111222,11111222' 
TCOON,ioos:station:TCOON:057:1,2017-05-01T15:12:00Z,28.4460,-96.3961,0.0,6.4,184.0,8.2,'11111222,11111222,11111222' 
TCOON,ioos:station:TCOON:057:1,2017-05-01T15:18:00Z,28.4460,-96.3961,0.0,6.4,179.0,8.3,'1111122,1111122,1111122' 
TCOON,ioos:station:TCOON:057:1,2017-05-01T15:24:00Z,28.4460,-96.3961,0.0,6.5,187.0,7.6,'11111222,11111222,11111222' 
TCOON,ioos:station:TCOON:057:1,2017-05-01T15:30:00Z,28.4460,-96.3961,0.0,6.9,179.0,7.7,'11111222,11111222,11111222' 
TCOON,ioos:station:TCOON:057:1,2017-05-01T15:36:00Z,28.4460,-96.3961,0.0,6.3,189.0,8.0,'11111222,11111222,11111222' 
TCOON,ioos:station:TCOON:057:1,2017-05-01T15:42:00Z,28.4460,-96.3961,0.0,7.3,182.0,7.9,'11111222,11111222,11111222' 
TCOON,ioos:station:TCOON:057:1,2017-05-01T15:48:00Z,28.4460,-96.3961,0.0,6.4,193.0,7.9,'11111222,11111222,11111222' 
TCOON,ioos:station:TCOON:057:1,2017-05-01T15:54:00Z,28.4460,-96.3961,0.0,6.9,187.0,8.3,'11111222,11111222,11111222' 
TCOON,ioos:station:TCOON:057:1,2017-05-01T16:00:00Z,28.4460,-96.3961,0.0,5.6,193.0,7.6,'11111222,11111222,11111222' 
TCOON,ioos:station:TCOON:057:1,2017-05-01T16:06:00Z,28.4460,-96.3961,0.0,6.4,183.0,8.5,'11111222,11111222,11111222' 
TCOON,ioos:station:TCOON:057:1,2017-05-01T16:12:00Z,28.4460,-96.3961,0.0,6.5,191.0,7.7,'11111222,11111222,11111222' 
TCOON,ioos:station:TCOON:057:1,2017-05-01T16:18:00Z,28.4460,-96.3961,0.0,6.5,185.0,7.7,'1111122,1111122,1111122' 
TCOON,ioos:station:TCOON:057:1,2017-05-01T16:24:00Z,28.4460,-96.3961,0.0,6.1,188.0,7.5,'11111222,11111222,11111222' 
TCOON,ioos:station:TCOON:057:1,2017-05-01T16:30:00Z,28.4460,-96.3961,0.0,6.5,190.0,8.5,'11111222,11111222,11111222' 
TCOON,ioos:station:TCOON:057:1,2017-05-01T16:36:00Z,28.4460,-96.3961,0.0,5.9,194.0,7.9,'11111222,11111222,11111222' 
TCOON,ioos:station:TCOON:057:1,2017-05-01T16:42:00Z,28.4460,-96.3961,0.0,6.4,180.0,7.9,'11111222,11111222,11111222' 
TCOON,ioos:station:TCOON:057:1,2017-05-01T16:48:00Z,28.4460,-96.3961,0.0,6.7,184.0,8.2,'11111222,11111222,11111222' 
TCOON,ioos:station:TCOON:057:1,2017-05-01T16:54:00Z,28.4460,-96.3961,0.0,5.9,191.0,7.3,'11111222,11111222,11111222' 
TCOON,ioos:station:TCOON:057:1,2017-05-01T17:00:00Z,28.4460,-96.3961,0.0,6.2,178.0,7.4,'11111222,11111222,11111222' 
TCOON,ioos:station:TCOON:057:1,2017-05-01T17:06:00Z,28.4460,-96.3961,0.0,6.0,184.0,7.4,'11111222,11111222,11111222' 
TCOON,ioos:station:TCOON:057:1,2017-05-01T17:12:00Z,28.4460,-96.3961,0.0,5.9,197.0,7.5,'11111222,11111222,11111222' 
TCOON,ioos:station:TCOON:057:1,2017-05-01T17:18:00Z,28.4460,-96.3961,0.0,5.9,191.0,7.5,'1111122,1111122,1111122' 
TCOON,ioos:station:TCOON:057:1,2017-05-01T17:24:00Z,28.4460,-96.3961,0.0,6.4,194.0,7.2,'11111222,11111222,11111222' 
TCOON,ioos:station:TCOON:057:1,2017-05-01T17:30:00Z,28.4460,-96.3961,0.0,5.5,206.0,7.6,'11111222,11111222,11111222' 
TCOON,ioos:station:TCOON:057:1,2017-05-01T17:36:00Z,28.4460,-96.3961,0.0,6.0,182.0,6.8,'11111222,11111222,11111222' 
TCOON,ioos:station:TCOON:057:1,2017-05-01T17:42:00Z,28.4460,-96.3961,0.0,5.1,186.0,7.0,'11111222,11111222,11111222' 
TCOON,ioos:station:TCOON:057:1,2017-05-01T17:48:00Z,28.4460,-96.3961,0.0,5.7,189.0,8.6,'11111222,11111222,11111222' 
TCOON,ioos:station:TCOON:057:1,2017-05-01T17:54:00Z,28.4460,-96.3961,0.0,6.0,182.0,8.0,'11111222,11111222,11111222' 
TCOON,ioos:station:TCOON:057:1,2017-05-01T18:00:00Z,28.4460,-96.3961,0.0,5.4,188.0,7.6,'11111222,11111222,11111222' 
TCOON,ioos:station:TCOON:057:1,2017-05-01T18:06:00Z,28.4460,-96.3961,0.0,6.1,209.0,7.1,'11111222,11111222,11111222' 
TCOON,ioos:station:TCOON:057:1,2017-05-01T18:12:00Z,28.4460,-96.3961,0.0,5.7,211.0,7.8,'11111222,11111222,11111222' 
TCOON,ioos:station:TCOON:057:1,2017-05-01T18:18:00Z,28.4460,-96.3961,0.0,5.7,205.0,7.7,'1111122,1111122,1111122' 
TCOON,ioos:station:TCOON:057:1,2017-05-01T18:24:00Z,28.4460,-96.3961,0.0,5.2,209.0,7.2,'11111222,11111222,11111222' 
TCOON,ioos:station:TCOON:057:1,2017-05-01T18:30:00Z,28.4460,-96.3961,0.0,5.4,219.0,6.6,'11111222,11111222,11111222' 
TCOON,ioos:station:TCOON:057:1,2017-05-01T18:36:00Z,28.4460,-96.3961,0.0,4.1,214.0,6.8,'11111222,11111222,11111222' 
TCOON,ioos:station:TCOON:057:1,2017-05-01T18:42:00Z,28.4460,-96.3961,0.0,4.8,224.0,6.3,'11111222,11111222,11111222' 
TCOON,ioos:station:TCOON:057:1,2017-05-01T18:48:00Z,28.4460,-96.3961,0.0,4.2,221.0,5.6,'11111222,11111222,11111222' 
TCOON,ioos:station:TCOON:057:1,2017-05-01T18:54:00Z,28.4460,-96.3961,0.0,4.4,223.0,5.6,'11111222,11111222,11111222' 
TCOON,ioos:station:TCOON:057:1,2017-05-01T19:00:00Z,28.4460,-96.3961,0.0,4.0,192.0,5.4,'11111222,11111222,11111222' 
TCOON,ioos:station:TCOON:057:1,2017-05-01T19:06:00Z,28.4460,-96.3961,0.0,4.3,206.0,5.5,'11111222,11111222,11111222' 
TCOON,ioos:station:TCOON:057:1,2017-05-01T19:12:00Z,28.4460,-96.3961,0.0,5.1,172.0,6.6,'11111222,11111222,11111222' 
TCOON,ioos:station:TCOON:057:1,2017-05-01T19:18:00Z,28.4460,-96.3961,0.0,5.1,167.0,6.4,'1111122,1111122,1111122' 
TCOON,ioos:station:TCOON:057:1,2017-05-01T19:24:00Z,28.4460,-96.3961,0.0,5.4,165.0,6.7,'11111222,11111222,11111222' 
TCOON,ioos:station:TCOON:057:1,2017-05-01T19:30:00Z,28.4460,-96.3961,0.0,4.8,168.0,6.2,'11111222,11111222,11111222' 
TCOON,ioos:station:TCOON:057:1,2017-05-01T19:36:00Z,28.4460,-96.3961,0.0,5.2,166.0,6.0,'11111222,11111222,11111222' 
TCOON,ioos:station:TCOON:057:1,2017-05-01T19:42:00Z,28.4460,-96.3961,0.0,5.0,169.0,5.7,'11111222,11111222,11111222' 
TCOON,ioos:station:TCOON:057:1,2017-05-01T19:48:00Z,28.4460,-96.3961,0.0,5.1,163.0,6.2,'11111222,11111222,11111222' 
TCOON,ioos:station:TCOON:057:1,2017-05-01T19:54:00Z,28.4460,-96.3961,0.0,4.9,165.0,6.4,'11111222,11111222,11111222' 
TCOON,ioos:station:TCOON:057:1,2017-05-01T20:00:00Z,28.4460,-96.3961,0.0,5.3,164.0,5.8,'11111222,11111222,11111222' 
TCOON,ioos:station:TCOON:057:1,2017-05-01T20:06:00Z,28.4460,-96.3961,0.0,5.2,162.0,5.7,'11111222,11111222,11111222' 
TCOON,ioos:station:TCOON:057:1,2017-05-01T20:12:00Z,28.4460,-96.3961,0.0,5.7,167.0,6.6,'11111222,11111222,11111222' 
TCOON,ioos:station:TCOON:057:1,2017-05-01T20:18:00Z,28.4460,-96.3961,0.0,5.7,162.0,6.5,'1111122,1111122,1111122' 
TCOON,ioos:station:TCOON:057:1,2017-05-01T20:24:00Z,28.4460,-96.3961,0.0,5.3,166.0,6.2,'11111222,11111222,11111222' 